User: anonymous   Login
Location: Abraham Lincoln Continuation High School
(33.9711°N, 117.3662°W)
Time: 09:56:53
(UTC+00:00)
Language:

SJ 16-02 - Orbit

View from above orbital plane
View from above orbital plane
View from above satellite
View from above satellite

Ground track
Ground track

The orbit data is extracted from the following two-line orbital elements,

1 41634U 16043A   20336.88218845  .00000206  00000-0  26838-4 0  9999
2 41634  75.0013 119.6401 0008273 254.7509 105.2757 14.85736280240108
Epoch (UTC): 01 December 2020 21:10:21
Eccentricity: 0.0008273
inclination: 75.0013°
perigee height: 605 km
apogee height: 617 km
right ascension of ascending node: 119.6401°
argument of perigee: 254.7509°
revolutions per day: 14.85736280
mean anomaly at epoch: 105.2757°
orbit number at epoch: 24010

The dashed part of the orbit path shows where the satellite is in the earth's shadow,  

DLR